Location: Moena
(46.3667°N, 11.6500°E)
Time: 14:44:49
(UTC+00:00)

Cosmos 2333 Rocket - Pass Details

Date: 19 June 2021
Orbit: 841 x 861 km, 70.8° (Epoch: 26 July)

Event Time Altitude Azimuth Distance (km) Brightness Sun altitude
Exits shadow 20:28:47 - 189° (S) 3,309 4.9 -10.7°
Reaches altitude 10° 20:30:59 10° 185° (S) 2,487 4.2 -11.0°
Maximum altitude 20:36:31 53° 110° (ESE) 1,048 2.4 -11.5°
Drops below altitude 10° 20:42:04 10° 35° (NE) 2,493 4.9 -12.1°
Sets 20:44:34 0° 31° (NNE) 3,430 5.7 -12.3°
